Location: Zagreb
(45.8000°N, 16.0000°E)
Time: 20:57:16
(UTC+01:00)

DX 1 - Pass Details

Date: 02 November 2020
Orbit: 619 x 630 km, 98.5° (Epoch: 01 December)

Event Time Altitude Azimuth Distance (km) Brightness Sun altitude
Rises 18:37:09 0° 12° (NNE) 2,911 ? -20.7°
Reaches altitude 10° 18:39:21 10° 11° (N) 2,002 ? -21.1°
Maximum altitude 18:43:42 77° 287° (WNW) 646 ? -21.8°
Drops below altitude 10° 18:48:02 10° 201° (SSW) 1,992 ? -22.6°
Sets 18:50:12 0° 200° (SSW) 2,896 ? -23.0°
